Weather History for Les Eplatures, Switzerland

Change the Weather History Date:

Tuesday, September 3, 2013

  Actual Average Record
Temperature  
Mean Temperature 58 °F -  
Max Temperature 75 °F - - ()
Min Temperature 41 °F - - ()
Degree Days  
Heating Degree Days 7    
Growing Degree Days 8 (Base 50)    
Moisture  
Dew Point 44 °F    
Average Humidity 60    
Maximum Humidity 87    
Minimum Humidity 35    
Precipitation  
Precipitation 0.00 in - - ()
Sea Level Pressure  
Sea Level Pressure 30.37 in    
Wind  
Wind Speed 3 mph ()    
Max Wind Speed 12 mph    
Max Gust Speed -    
T = Trace of Precipitation, MM = Missing Value Source: Averaged Metar Reports

Daily Weather History Graph

Daily Weather History Graph

Search for Another Location

Airport:

Trip Planner

Search our weather history database for the weather conditions in past years. The results will help you decide how hot, cold, wet, or windy it might be!

Date:

Astronomy

Sep. 03, 2013 Rise Set
Actual Time 6:54 AM CEST 8:08 PM CEST
Civil Twilight 6:23 AM CEST 8:39 PM CEST
Nautical Twilight 5:45 AM CEST 9:17 PM CEST
Astronomical Twilight 5:04 AM CEST 9:57 PM CEST
Moon 4:48 AM CEST (9/3) 6:49 PM CEST (9/3)
Length of Visible Light 14h 16m
Length of Day
13h 13m
Waning Crescent, 4% of the Moon is Illuminated
Sep 3
Waning Crescent
Sep 5
New
Sep 12
First Quarter
Sep 19
Full
Sep 27
Last Quarter

Hourly Weather History & Observations

Time (CEST) Temp. Dew Point Humidity Pressure Visibility Wind Dir Wind Speed Gust Speed Precip Events Conditions
12:20 AM 44.6 °F 37.4 °F 76% 30.42 in - Calm Calm - N/A   Clear
12:50 AM 44.6 °F 37.4 °F 76% 30.42 in - Variable 1.2 mph - N/A   Clear
1:20 AM 42.8 °F 37.4 °F 81% 30.42 in - Calm Calm - N/A   Clear
1:50 AM 42.8 °F 37.4 °F 81% 30.39 in - Calm Calm - N/A   Clear
2:20 AM 42.8 °F 37.4 °F 81% 30.39 in - Calm Calm - N/A   Clear
2:50 AM 44.6 °F 39.2 °F 81% 30.39 in - Calm Calm - N/A   Clear
3:20 AM 42.8 °F 39.2 °F 87% 30.39 in - SW 1.2 mph - N/A   Clear
3:50 AM 41.0 °F 37.4 °F 87% 30.39 in - Calm Calm - N/A   Clear
4:20 AM 41.0 °F 37.4 °F 87% 30.36 in - NE 1.2 mph - N/A   Clear
4:50 AM 42.8 °F 37.4 °F 81% 30.36 in - Calm Calm - N/A   Clear
5:20 AM 41.0 °F 35.6 °F 81% 30.36 in - ENE 2.3 mph - N/A   Clear
5:50 AM 42.8 °F 37.4 °F 81% 30.36 in - ENE 1.2 mph - N/A   Clear
6:20 AM 44.6 °F 37.4 °F 76% 30.36 in - ENE 2.3 mph - N/A   Clear
6:50 AM 46.4 °F 37.4 °F 71% 30.36 in - NE 2.3 mph - N/A   Clear
7:20 AM 44.6 °F 37.4 °F 76% 30.36 in - NE 1.2 mph - N/A   Clear
7:50 AM 46.4 °F 39.2 °F 76% 30.36 in - NE 1.2 mph - N/A   Clear
8:20 AM 51.8 °F 41.0 °F 67% 30.36 in - Calm Calm - N/A   Clear
8:50 AM 55.4 °F 41.0 °F 58% 30.36 in - Calm Calm - N/A   Clear
9:20 AM 60.8 °F 39.2 °F 45% 30.36 in - NE 4.6 mph - N/A   Clear
9:50 AM 62.6 °F 39.2 °F 42% 30.36 in - Variable 3.5 mph - N/A   Clear
10:20 AM 64.4 °F 41.0 °F 42% 30.39 in - ENE 5.8 mph - N/A   Clear
10:50 AM 66.2 °F 39.2 °F 37% 30.39 in - NE 9.2 mph - N/A   Clear
11:20 AM 68.0 °F 39.2 °F 35% 30.39 in - NE 5.8 mph - N/A   Clear
11:50 AM 68.0 °F 41.0 °F 37% 30.39 in - ENE 6.9 mph - N/A   Clear
12:20 PM 69.8 °F 44.6 °F 40% 30.39 in - Variable 5.8 mph - N/A   Clear
12:50 PM 71.6 °F 44.6 °F 38% 30.39 in - ENE 5.8 mph - N/A   Clear
1:20 PM 71.6 °F 44.6 °F 38% 30.39 in - ENE 4.6 mph - N/A   Clear
1:50 PM 73.4 °F 46.4 °F 38% 30.39 in - NE 10.4 mph - N/A   Clear
2:20 PM 73.4 °F 46.4 °F 38% 30.36 in - NE 5.8 mph - N/A   Clear
2:50 PM 73.4 °F 44.6 °F 36% 30.36 in - ENE 5.8 mph - N/A   Clear
3:20 PM 75.2 °F 50.0 °F 41% 30.36 in - ENE 6.9 mph - N/A   Clear
3:50 PM 73.4 °F 48.2 °F 41% 30.36 in - NE 5.8 mph - N/A   Clear
4:20 PM 75.2 °F 48.2 °F 38% 30.36 in - ESE 5.8 mph - N/A   Clear
4:50 PM 73.4 °F 48.2 °F 41% 30.36 in - NE 5.8 mph - N/A   Clear
5:20 PM 73.4 °F 48.2 °F 41% 30.36 in - East 5.8 mph - N/A   Clear
5:50 PM 73.4 °F 50.0 °F 44% 30.33 in - East 5.8 mph - N/A   Clear
6:20 PM 71.6 °F 51.8 °F 50% 30.33 in - SE 5.8 mph - N/A   Clear
6:50 PM 69.8 °F 53.6 °F 56% 30.33 in - NNE 5.8 mph - N/A   Clear
7:20 PM 68.0 °F 51.8 °F 56% 30.33 in - NNE 5.8 mph - N/A   Clear
7:50 PM 66.2 °F 51.8 °F 60% 30.36 in - NE 4.6 mph - N/A   Clear
8:20 PM 62.6 °F 51.8 °F 68% 30.36 in - NE 2.3 mph - N/A   Clear
8:50 PM 60.8 °F 51.8 °F 72% 30.36 in - Variable 1.2 mph - N/A   Clear
9:20 PM 59.0 °F 50.0 °F 72% 30.36 in - Variable 2.3 mph - N/A   Clear
9:50 PM 57.2 °F 50.0 °F 77% 30.36 in - Variable 3.5 mph - N/A   Clear
10:20 PM 59.0 °F 50.0 °F 72% 30.36 in - Variable 1.2 mph - N/A   Clear
10:50 PM 64.4 °F 50.0 °F 59% 30.36 in - NNE 8.1 mph - N/A   Clear
11:20 PM 64.4 °F 48.2 °F 56% 30.36 in - NE 11.5 mph - N/A   Clear
11:50 PM 64.4 °F 48.2 °F 56% 30.33 in - NE 10.4 mph - N/A   Clear